NOAA 16 DEB

Satellite information

Favourite Embed

Satellite Type and Status

DEBRISIN ORBIT

Key statistics

Satellite NOAA 16 DEB at a glance.

Uptime

9056

Days in orbit

Revolutions

≈ 14.3

Per day

Orbit

SSO

Sun Synchronous Orbit

Inclination

98.8

Latest

Satellite identification and parameters

Extended collection of information and parameters for NOAA 16 DEB.

Object identification

Identified? True

Debris? True

Object name: NOAA 16 DEB

International designator: 2000-055TM

Object number (NORAD): 42417

Object ID (CCSDS): 42417

Country: UNITED STATES OF AMERICA (US)

Current information (Y/N): Y

RCS size: SMALL

Orbital parameters

Period: 100.832 minutes

Inclination: 98.7558 deg

SMA: 7176.151 km

Apoapsis: 815.564 km

Periapsis: 780.468 km

RAAN: 258.7975 deg

Eccentricy: 0.0024453

Argument of periapsis: 358.1658 deg

Mean anomaly: 1.9429 deg

Mean motion: 14.28122284 rev/day

Mean motion (dot): 0.0000363 rev/day2

B* drag term: 0.0014724 1/REarth

Two-line elements (TLE)

Creation date: July 6, 2025, 6:05 p.m.

Reference frame: TEME

Reference center: EARTH

Epoch: July 6, 2025, 3:26 a.m. UTC

TLE line 0: 0 NOAA 16 DEB

TLE line 1: 1 42417U 00055TM 25187.14338261 .00003630 00000-0 14724-2 0 9991

TLE line 2: 2 42417 98.7558 258.7975 0024453 358.1658 1.9429 14.28122284481067

Live tracking on map

Real-time ground track for satellite NOAA 16 DEB.

In-orbit conjunctions

A list of the most updated potential collisions computed for object NOAA 16 DEB.

Target Orbit TCA Probability of collision Miss distance Type
COSMOS 1420 LEO 2025-02-11 10:52:45 0.0002392647 418.0 (m) PAYLOAD
COSMOS 1275 DEB LEO 2025-02-10 18:15:45 0.0002661523 70.0 (m) DEBRIS

Associated space launch

The NOAA K, L and M POES satellites begin the fifth generation of improved environmental monitoring in support of NOAA missions. The instrument payload has significant improvements and additions/deletions. The instrument changes have effected the spacecraft subsystems and data formats.

NOAA 16 DEB was lifted into orbit during the mission ‘Titan II SLV | NOAA 16’, on board a Titan II SLV space rocket.

The launch took place on Sept. 21, 2000, 10:22 a.m. from Space Launch Complex 4W.

For more information about the launch, click the button.

Launch to space Titan II SLV | NOAA 16
Titan II SLV | NOAA 16

Agency: N/A

Status: Launch Successful

Launch date: Sept. 21, 2000, 10:22 a.m. UTC

Rocket: Titan II SLV

Launch pad: Space Launch Complex 4W

Location: Vandenberg SFB, CA, USA

...

Latest news about this satellite

There are no fresh news available about this satellite. Check back as we update our databases every day.


Newsletter sign-up

Weekly statistics, charts and insights to help you stay on top of the space industry.